Flag for United Kingdom Weather past 2 weeks in Liverpool, England, United Kingdom

48 °F


Feels Like: 46 °F
Forecast: 50 / 58 °F
Wind: 5 mph from East

Location: Liverpool Airport

Current Time: Oct 10, 2015 at 3:16:07 AM

Latest Report: Oct 10, 2015 at 2:50 AM

Visibility: 10 mi

Pressure: 30.21 "Hg

Humidity: 94%

Dew point: 46 °F

Location of LiverpoolLocation

Historic Weather in Liverpool — Graph


Liverpool temperature yesterday

Maximum temperature yesterday: 63 °F (at 2:20 PM)
Minimum temperature yesterday: 48 °F (at 2:50 AM)
Average temperature yesterday: 54 °F

Past Weeks' High & Low Weather Summary

High68 °F (Oct 5, 2:20 PM)100% (Sep 26, 2:20 AM)30.66 "Hg (Sep 26, 2:20 AM)
Low41 °F (Sep 26, 7:20 AM)56% (Sep 27, 2:50 PM)29.36 "Hg (Oct 6, 1:50 PM)
Average55 °F85%30.17 "Hg
* Reported Sep 25 2:20 AM — Oct 10 2:20 AM, Liverpool, Weather by CustomWeather, © 2015

Note: Actual official high and low records may vary slightly from our data, if they occured in-between our weather recording intervals... More about our weather records


Liverpool weather history for previous 24 hours

Time TempWeatherWind HumidityBarometerVisibility
2:20 AM
Sat, Oct 10
48 °FClear.6 mph94%30.21 "Hg10 mi
1:50 AM48 °FClear.7 mph94%30.21 "Hg10 mi
1:20 AM50 °FClear.8 mph88%30.21 "Hg10 mi
12:50 AM50 °FClear.8 mph88%30.21 "Hg10 mi
12:20 AM50 °FClear.10 mph94%30.21 "Hg10 mi
11:50 PM
Fri, Oct 9
52 °FClear.8 mph88%30.21 "Hg10 mi
11:20 PM52 °FClear.7 mph94%30.21 "Hg10 mi
10:20 PM54 °FClear.5 mph94%30.21 "Hg10 mi
9:50 PM54 °FClear.5 mph88%30.21 "Hg10 mi
9:20 PM54 °FClear.5 mph88%30.21 "Hg10 mi
8:50 PM54 °FClear.5 mph82%30.18 "Hg10 mi
8:20 PM54 °FClear.6 mph82%30.18 "Hg10 mi
7:50 PM54 °FClear.7 mph88%30.18 "Hg10 mi
7:20 PM55 °FSunny.5 mph82%30.18 "Hg10 mi
6:50 PM57 °FPassing clouds.3 mph77%30.18 "HgN/A
6:20 PM57 °FPassing clouds.3 mph77%30.18 "HgN/A
5:50 PM59 °FPassing clouds.6 mph72%30.18 "HgN/A
5:20 PM63 °FPassing clouds.8 mph59%30.18 "HgN/A
4:50 PM61 °FPassing clouds.7 mph59%30.18 "HgN/A
4:20 PM63 °FSunny.5 mph64%30.18 "Hg10 mi
3:20 PM63 °FPassing clouds.6 mph68%30.18 "HgN/A
2:50 PM63 °FSunny.6 mph68%30.18 "Hg10 mi
2:20 PM63 °FSunny.7 mph68%30.18 "Hg10 mi
12:20 PM59 °FPassing clouds.6 mph77%30.18 "HgN/A
11:50 AM59 °FSunny.5 mph77%30.18 "Hg10 mi
11:20 AM57 °FPassing clouds.5 mph82%30.21 "HgN/A
10:50 AM55 °FPassing clouds.5 mph88%30.21 "HgN/A
10:20 AM54 °FPassing clouds.6 mph88%30.21 "HgN/A
9:50 AM54 °FPassing clouds.5 mph88%30.21 "HgN/A
9:20 AM52 °FSunny.5 mph94%30.18 "Hg10 mi
8:50 AM52 °FPassing clouds.6 mph94%30.18 "HgN/A
8:20 AM50 °FClear.6 mph94%30.18 "Hg10 mi
7:50 AM48 °FClear.5 mph100%30.18 "Hg10 mi
7:20 AM48 °FClear.6 mph100%30.18 "Hg10 mi
6:50 AM48 °FClear.5 mph100%30.18 "Hg10 mi
6:20 AM48 °FPassing clouds.3 mph94%30.18 "HgN/A
5:50 AM48 °FClear.5 mph100%30.18 "Hg10 mi
5:20 AM50 °FClear.5 mph94%30.18 "Hg10 mi
4:50 AM50 °FClear.5 mph100%30.18 "Hg10 mi
4:20 AM48 °FPassing clouds.5 mph100%30.18 "HgN/A
3:50 AM48 °FClear.3 mph100%30.18 "Hg10 mi
3:20 AM50 °FClear.5 mph100%30.18 "Hg10 mi
Weather by CustomWeather, © 2015

See weather overviewHow to use our weather pages